Home > Weather > Klagenfurt > Past weeks

Flag for Austria Weather for the Past 2 Weeks in Klagenfurt, Carinthia, Austria

Now
30 °F

Chilly.


Feels Like: 25 °F
Forecast: 25 / 39 °F
Wind: 5 mph from Northwest

Location: Klagenfurt-Flughafen

Current Time: Feb 6, 2016 at 1:45:46 AM

Latest Report: Feb 6, 2016 at 12:50 AM


Visibility: N/A

Pressure: 30.36 "Hg

Humidity: 93%

Dew point: 28 °F

Location of KlagenfurtLocation

Historic Weather in Klagenfurt — Graph

°F

Klagenfurt Temperature Yesterday

Maximum temperature yesterday: 48 °F (at 3:20 PM)
Minimum temperature yesterday: 28 °F (at 7:20 AM)
Average temperature yesterday: 37 °F

High & Low Weather Summary for the Past Weeks

 TemperatureHumidityPressure
High55 °F (Feb 1, 2:50 PM)100% (Jan 24, 7:20 AM)30.60 "Hg (Jan 24, 7:20 AM)
Low14 °F (Jan 23, 2:50 AM)32% (Feb 4, 3:50 PM)29.89 "Hg (Jan 31, 3:20 AM)
Average33 °F86%30.28 "Hg
* Reported Jan 21 11:50 PM — Feb 5 11:50 PM, Klagenfurt, Weather by CustomWeather, © 2016

Note: Actual official high and low records may vary slightly from our data, if they occured in-between our weather recording intervals... More about our weather records

Advertising

Klagenfurt Weather History for the Previous 24 Hours

 ConditionsComfort  
Time TempWeatherWind HumidityBarometerVisibility
11:50 PM
Fri, Feb 5
32 °FChilly.6 mph93%30.36 "HgN/A
11:20 PM32 °FPassing clouds.3 mph93%30.36 "HgN/A
10:50 PM32 °FPassing clouds.3 mph93%30.36 "HgN/A
10:20 PM34 °FPartly cloudy.2 mph87%30.36 "HgN/A
9:50 PM34 °FPassing clouds.3 mph93%30.36 "HgN/A
9:20 PM36 °FPassing clouds.3 mph87%30.36 "HgN/A
8:50 PM36 °FPassing clouds.2 mph87%30.36 "HgN/A
8:20 PM36 °FPassing clouds.1 mph87%30.36 "HgN/A
7:50 PM36 °FPassing clouds.2 mph87%30.36 "HgN/A
7:20 PM36 °FPassing clouds.1 mph81%30.33 "HgN/A
6:50 PM37 °FPassing clouds.3 mph81%30.33 "HgN/A
6:20 PM37 °FPassing clouds.5 mph81%30.33 "HgN/A
5:50 PM39 °FPassing clouds.3 mph75%30.30 "HgN/A
5:20 PM43 °FPassing clouds.2 mph66%30.30 "HgN/A
4:50 PM45 °FPassing clouds.3 mph61%30.30 "HgN/A
4:20 PM46 °FPassing clouds.3 mph57%30.30 "HgN/A
3:50 PM46 °FPassing clouds.3 mph50%30.30 "HgN/A
3:20 PM48 °FPassing clouds.2 mph50%30.30 "HgN/A
2:50 PM46 °FPassing clouds.3 mph46%30.30 "HgN/A
2:20 PM46 °FPassing clouds.3 mph46%30.27 "HgN/A
1:50 PM46 °FPassing clouds.3 mph50%30.30 "HgN/A
1:20 PM46 °FPassing clouds.5 mph62%30.30 "HgN/A
12:50 PM45 °FPassing clouds.1 mph61%30.30 "HgN/A
12:20 PM43 °FPassing clouds.1 mph71%30.30 "HgN/A
11:50 AM43 °FPassing clouds.1 mph71%30.30 "HgN/A
11:20 AM41 °FPassing clouds.1 mph76%30.33 "HgN/A
10:50 AM39 °FPassing clouds.2 mph81%30.33 "HgN/A
10:20 AM37 °FScattered clouds.5 mph81%30.30 "HgN/A
9:50 AM37 °FPassing clouds.3 mph81%30.30 "HgN/A
9:20 AM36 °FPassing clouds.1 mph87%30.30 "HgN/A
8:50 AM34 °FPassing clouds.2 mph93%30.30 "HgN/A
8:20 AM32 °FPassing clouds.2 mph93%30.27 "HgN/A
7:50 AM30 °FScattered clouds.2 mph93%30.27 "HgN/A
7:20 AM28 °FPartly cloudy.2 mph93%30.27 "HgN/A
6:50 AM30 °FPassing clouds.6 mph93%30.24 "HgN/A
6:20 AM30 °FPassing clouds.6 mph93%30.21 "HgN/A
5:50 AM30 °FPassing clouds.7 mph93%30.21 "HgN/A
5:20 AM32 °FPassing clouds.2 mph93%30.21 "HgN/A
4:50 AM32 °FPartly cloudy.5 mph93%30.21 "HgN/A
4:20 AM32 °FPassing clouds.3 mph93%30.18 "HgN/A
3:50 AM30 °FPassing clouds.1 mph93%30.18 "HgN/A
3:20 AM32 °FPartly cloudy.2 mph93%30.18 "HgN/A
2:50 AM32 °FPassing clouds.2 mph93%30.15 "HgN/A
2:20 AM34 °FPassing clouds.5 mph87%30.15 "HgN/A
1:50 AM34 °FLight rain. Passing clouds.2 mph87%30.15 "HgN/A
Weather by CustomWeather, © 2016

See weather overviewHow to use our weather pages